• In India
  • List of Countries
  • For 7 days
  • Water Temperature
  • Satellite Maps
  • Weather Map
  • Weather Widgets
  • user-avatar
    Login

    Hourly Weather Yulara

    Today, 18 November, Sunday

    Time Temperature Precipitation Wind Pressure Humidity
    00:00 +26°C° 0 mm 1 mps 717 mmHg 38%
    01:00 +25°C° 0 mm 1 mps 716 mmHg 40%
    02:00 +23°C° 0 mm 0 mps 716 mmHg 42%
    03:00 +22°C° 0 mm 0 mps 716 mmHg 43%
    04:00 +25°C° 0 mm 1 mps 716 mmHg 41%
    05:00 +25°C° 0 mm 2 mps 716 mmHg 39%
    06:00 +25°C° 0 mm 2 mps 716 mmHg 38%
    07:00 +28°C° 0 mm 3 mps 716 mmHg 32%
    08:00 +30°C° 0 mm 4 mps 717 mmHg 26%
    09:00 +32°C° 0 mm 4 mps 718 mmHg 19%
    10:00 +33°C° 0 mm 4 mps 718 mmHg 19%
    11:00 +35°C° 0 mm 5 mps 717 mmHg 18%
    12:00 +36°C° 0 mm 5 mps 717 mmHg 17%
    13:00 +36°C° 0 mm 4 mps 716 mmHg 17%
    14:00 +37°C° 0 mm 4 mps 716 mmHg 17%
    15:00 +37°C° 0 mm 3 mps 715 mmHg 17%
    16:00 +37°C° 0 mm 3 mps 715 mmHg 17%
    17:00 +37°C° 0 mm 3 mps 715 mmHg 17%
    18:00 +37°C° 0 mm 3 mps 715 mmHg 17%
    19:00 +36°C° 0 mm 3 mps 715 mmHg 19%
    20:00 +35°C° 0 mm 2 mps 715 mmHg 20%
    21:00 +32°C° 0 mm 2 mps 715 mmHg 22%
    22:00 +32°C° 0 mm 2 mps 715 mmHg 23%
    23:00 +31°C° 0 mm 2 mps 715 mmHg 25%

    Tomorrow, 19 November, Monday

    Time Temperature Precipitation Wind Pressure Humidity
    00:00 +31°C° 0 mm 2 mps 714 mmHg 26%
    01:00 +30°C° 0 mm 3 mps 714 mmHg 28%
    02:00 +30°C° 0 mm 3 mps 714 mmHg 30%
    03:00 +29°C° 0 mm 4 mps 713 mmHg 32%
    04:00 +29°C° 0 mm 4 mps 713 mmHg 36%
    05:00 +29°C° 0 mm 4 mps 713 mmHg 39%
    06:00 +28°C° 0 mm 4 mps 714 mmHg 43%
    07:00 +32°C° 0 mm 5 mps 714 mmHg 37%
    08:00 +34°C° 0 mm 6 mps 714 mmHg 32%
    09:00 +37°C° 0 mm 8 mps 715 mmHg 27%
    10:00 +39°C° 0 mm 7 mps 714 mmHg 24%
    11:00 +40°C° 0 mm 7 mps 714 mmHg 20%
    12:00 +41°C° 0 mm 6 mps 714 mmHg 17%
    13:00 +41°C° 0 mm 6 mps 713 mmHg 17%
    14:00 +40°C° 0 mm 6 mps 712 mmHg 18%
    15:00 +40°C° 0 mm 5 mps 712 mmHg 18%
    16:00 +40°C° 0 mm 5 mps 712 mmHg 18%
    17:00 +40°C° 0 mm 6 mps 712 mmHg 19%
    18:00 +39°C° 0 mm 6 mps 712 mmHg 20%
    19:00 +37°C° 0.1 mm 5 mps 712 mmHg 23%
    20:00 +35°C° 0.1 mm 5 mps 712 mmHg 27%
    21:00 +34°C° 0.1 mm 4 mps 712 mmHg 30%
    22:00 +33°C° 0.3 mm 5 mps 713 mmHg 35%
    23:00 +32°C° 0.3 mm 5 mps 713 mmHg 41%

    Day after tomorrow, 20 November, Tuesday

    Time Temperature Precipitation Wind Pressure Humidity
    00:00 +29°C° 0.3 mm 6 mps 713 mmHg 46%
    01:00 +29°C° 0.1 mm 6 mps 712 mmHg 50%
    02:00 +28°C° 0.1 mm 7 mps 712 mmHg 54%
    03:00 +27°C° 0.1 mm 7 mps 712 mmHg 58%
    04:00 +26°C° 0.2 mm 7 mps 712 mmHg 62%
    05:00 +23°C° 0.2 mm 7 mps 712 mmHg 65%
    06:00 +22°C° 0.2 mm 7 mps 712 mmHg 69%
    07:00 +23°C° 1.1 mm 6 mps 713 mmHg 65%
    08:00 +25°C° 1.1 mm 5 mps 713 mmHg 62%
    09:00 +26°C° 1.1 mm 5 mps 714 mmHg 58%
    10:00 +28°C° 1 mm 4 mps 714 mmHg 55%
    11:00 +29°C° 1 mm 3 mps 714 mmHg 52%
    12:00 +30°C° 1 mm 3 mps 713 mmHg 49%
    13:00 +30°C° 2.2 mm 3 mps 713 mmHg 51%
    14:00 +29°C° 2.2 mm 4 mps 712 mmHg 53%
    15:00 +29°C° 2.2 mm 5 mps 711 mmHg 55%
    16:00 +28°C° 5.2 mm 6 mps 711 mmHg 56%
    17:00 +28°C° 5.2 mm 7 mps 711 mmHg 57%
    18:00 +27°C° 5.2 mm 7 mps 711 mmHg 58%
    19:00 +26°C° 0.1 mm 7 mps 712 mmHg 58%
    20:00 +26°C° 0.1 mm 7 mps 713 mmHg 58%
    21:00 +24°C° 0.1 mm 7 mps 713 mmHg 57%
    22:00 +23°C° 0 mm 7 mps 713 mmHg 58%
    23:00 +23°C° 0 mm 6 mps 714 mmHg 59%

    21 November, Wednesday

    Time Temperature Precipitation Wind Pressure Humidity
    00:00 +22°C° 0 mm 6 mps 714 mmHg 59%
    01:00 +22°C° 0 mm 6 mps 714 mmHg 59%
    02:00 +22°C° 0 mm 5 mps 713 mmHg 59%
    03:00 +21°C° 0 mm 5 mps 713 mmHg 59%
    04:00 +21°C° 0 mm 6 mps 714 mmHg 57%
    05:00 +21°C° 0 mm 6 mps 714 mmHg 54%
    06:00 +20°C° 0 mm 6 mps 715 mmHg 51%
    07:00 +21°C° 0 mm 6 mps 715 mmHg 47%
    08:00 +22°C° 0 mm 6 mps 716 mmHg 44%
    09:00 +23°C° 0 mm 6 mps 716 mmHg 40%
    10:00 +26°C° 0 mm 5 mps 716 mmHg 37%
    11:00 +27°C° 0 mm 4 mps 716 mmHg 34%
    12:00 +28°C° 0 mm 3 mps 716 mmHg 30%
    13:00 +29°C° 0 mm 3 mps 715 mmHg 27%
    14:00 +30°C° 0 mm 3 mps 715 mmHg 24%
    15:00 +30°C° 0 mm 3 mps 714 mmHg 20%
    16:00 +30°C° 0 mm 4 mps 714 mmHg 19%
    17:00 +30°C° 0 mm 4 mps 714 mmHg 18%
    18:00 +30°C° 0 mm 5 mps 714 mmHg 18%
    19:00 +29°C° 0 mm 5 mps 715 mmHg 19%
    20:00 +28°C° 0 mm 6 mps 715 mmHg 20%
    21:00 +27°C° 0 mm 6 mps 716 mmHg 21%
    22:00 +26°C° 0 mm 6 mps 716 mmHg 23%
    23:00 +24°C° 0 mm 6 mps 716 mmHg 24%

    22 November, Thursday

    Time Temperature Precipitation Wind Pressure Humidity
    00:00 +23°C° 0 mm 6 mps 716 mmHg 26%
    01:00 +22°C° 0 mm 6 mps 716 mmHg 29%
    02:00 +21°C° 0 mm 6 mps 716 mmHg 33%
    03:00 +20°C° 0 mm 7 mps 716 mmHg 37%
    04:00 +18°C° 0 mm 7 mps 716 mmHg 37%
    05:00 +18°C° 0 mm 7 mps 717 mmHg 38%
    06:00 +17°C° 0 mm 7 mps 717 mmHg 39%
    07:00 +20°C° 0 mm 7 mps 718 mmHg 36%
    08:00 +21°C° 0 mm 8 mps 718 mmHg 33%
    09:00 +22°C° 0 mm 8 mps 719 mmHg 31%
    10:00 +24°C° 0 mm 7 mps 718 mmHg 28%
    11:00 +27°C° 0 mm 7 mps 718 mmHg 25%
    12:00 +29°C° 0 mm 7 mps 717 mmHg 22%
    13:00 +30°C° 0 mm 6 mps 716 mmHg 21%
    14:00 +32°C° 0 mm 6 mps 716 mmHg 20%
    15:00 +33°C° 0 mm 6 mps 715 mmHg 18%
    16:00 +33°C° 0 mm 5 mps 715 mmHg 19%
    17:00 +33°C° 0 mm 5 mps 715 mmHg 19%
    18:00 +33°C° 0 mm 5 mps 715 mmHg 20%
    19:00 +32°C° 0 mm 5 mps 715 mmHg 21%
    20:00 +30°C° 0 mm 5 mps 715 mmHg 23%
    21:00 +29°C° 0 mm 5 mps 715 mmHg 25%
    22:00 +28°C° 0 mm 5 mps 714 mmHg 26%
    23:00 +28°C° 0 mm 5 mps 714 mmHg 26%

    23 November, Friday

    Time Temperature Precipitation Wind Pressure Humidity
    00:00 +27°C° 0 mm 6 mps 714 mmHg 27%
    01:00 +27°C° 0 mm 6 mps 713 mmHg 28%
    02:00 +27°C° 0 mm 6 mps 713 mmHg 29%
    03:00 +27°C° 0 mm 6 mps 712 mmHg 31%
    04:00 +27°C° 0 mm 5 mps 713 mmHg 36%
    05:00 +27°C° 0 mm 5 mps 713 mmHg 41%
    06:00 +27°C° 0 mm 4 mps 713 mmHg 46%
    07:00 +29°C° 0 mm 7 mps 713 mmHg 44%
    08:00 +33°C° 0 mm 9 mps 714 mmHg 42%
    09:00 +36°C° 0 mm 11 mps 714 mmHg 40%
    10:00 +38°C° 0 mm 11 mps 714 mmHg 34%
    11:00 +39°C° 0 mm 11 mps 713 mmHg 29%
    12:00 +41°C° 0 mm 11 mps 713 mmHg 24%
    13:00 +42°C° 0 mm 11 mps 712 mmHg 22%
    14:00 +42°C° 0 mm 11 mps 712 mmHg 20%
    15:00 +42°C° 0 mm 11 mps 711 mmHg 18%
    16:00 +42°C° 0 mm 11 mps 711 mmHg 16%
    17:00 +40°C° 0 mm 10 mps 711 mmHg 15%
    18:00 +40°C° 0 mm 10 mps 712 mmHg 13%
    19:00 +38°C° 0 mm 9 mps 712 mmHg 14%
    20:00 +37°C° 0 mm 8 mps 713 mmHg 15%
    21:00 +34°C° 0 mm 7 mps 713 mmHg 16%
    22:00 +33°C° 0 mm 7 mps 714 mmHg 16%
    23:00 +31°C° 0 mm 8 mps 714 mmHg 16%
    Show more